• Processing (Info)

  • MPEC 2022-K154 : 2022 KD5

    The following Minor Planet Electronic Circular may be linked-to from your own Web pages, but must not otherwise be redistributed electronically.

    A form allowing access to any MPEC is at the bottom of this page.


    Read MPEC 2022-K153 Read MPEC 2022-K155


    M.P.E.C. 2022-K154                                 Issued 2022 May 29, 12:45 UT
    
         The Minor Planet Electronic Circulars contain information on unusual
             minor planets and routine data on comets.  They are published
        on behalf of Division F of the International Astronomical Union by the
              Minor Planet Center, Smithsonian Astrophysical Observatory,
                              Cambridge, MA 02138, U.S.A.
    
                 Prepared using the Tamkin Foundation Computer Network
    
                                  MPC@CFA.HARVARD.EDU
                URL https://www.minorplanetcenter.net/    ISSN 1523-6714
    
                                    2022 KD5                                 
    
    
    Observations:
         K22K05D* C2022 05 25.36847616 51 18.198+13 22 04.51         21.21GVEK154G96
         K22K05D  C2022 05 25.37359916 51 17.849+13 22 06.24         21.28GVEK154G96
         K22K05D  C2022 05 25.37872516 51 17.608+13 22 07.57         22.33GVEK154G96
         K22K05D  C2022 05 25.38386416 51 17.204+13 22 08.69         22.17GVEK154G96
         K22K05D  C2022 05 28.47429916 47 57.296+13 34 52.91         21.13wUEK154F52
         K22K05D  C2022 05 28.48524716 47 56.532+13 34 55.01         21.97wUEK154F52
         K22K05D  C2022 05 28.49611916 47 55.767+13 34 57.39         21.82wUEK154F52
         K22K05D  C2022 05 28.50699116 47 55.005+13 34 59.47         21.48wUEK154F52
         K22K05D 1C2022 05 28.96342 16 47 24.62 +13 36 26.6          21.3 VXEK154033
         K22K05D 1C2022 05 28.96700 16 47 24.35 +13 36 27.1          21.1 VXEK154033
         K22K05D 1C2022 05 28.97832 16 47 23.59 +13 36 29.3          21.1 VXEK154033
         K22K05D 1C2022 05 28.98202 16 47 23.30 +13 36 30.3          21.6 VXEK154033
         K22K05D KC2022 05 29.24860316 47 05.31 +13 37 22.6          21.4 VuEK154H21
         K22K05D KC2022 05 29.26381616 47 04.23 +13 37 25.1          22.1 VuEK154H21
         K22K05D KC2022 05 29.26627816 47 04.05 +13 37 25.5          21.5 VuEK154H21
         K22K05D KC2022 05 29.27342516 47 03.761+13 37 27.59         21.63GVEK154I52
         K22K05D KC2022 05 29.28073016 47 03.224+13 37 28.88         21.43GVEK154I52
         K22K05D KC2022 05 29.28810116 47 02.720+13 37 29.21         20.92GVEK154I52
         K22K05D KC2022 05 29.29664916 47 02.101+13 37 31.66         21.90GVEK154I52
         K22K05D KC2022 05 29.39318 16 46 55.27 +13 37 50.0          21.5 RoEK154691
         K22K05D KC2022 05 29.41481 16 46 53.76 +13 37 53.7          21.0 RoEK154691
         K22K05D KC2022 05 29.43644 16 46 52.23 +13 37 57.2          21.6 RoEK154691
    
    Observer details:
    033 Karl Schwarzschild Observatory, Tautenburg.  Observers S. Melnikov, C.
        Hoegner, U. Laux, F. Ludwig, B. Stecklum.  Measurer B. Stecklum.  1.34-m
        f/3 Schmidt + CCD.
    691 Steward Observatory, Kitt Peak-Spacewatch.  Observer A. F. Tubbiolo.
        0.9-m f/3 reflector + CCD.
    F52 Pan-STARRS 2, Haleakala.  Observers J. Bulger, T. Lowe, A. Schultz, I.
        Smith.  Measurers K. Chambers, S. Chastel, T. de Boer, J. Fairlamb, H.
        Gao, M. Huber, C.-C. Lin, E. Magnier, Y. Ramanjooloo, R. Wainscoat, R.
        Weryk.  1.8-m Ritchey-Chretien + CCD.
    G96 Mt. Lemmon Survey.  Observer D. Rankin.  Measurers E. J. Christensen, D.
        Fay, J. B. Fazekas, D. C. Fuls, A. R. Gibbs, A. D. Grauer, H. Groeller, J.
        K. Hogan, R. A. Kowalski, S. M. Larson, G. J. Leonard, D. Rankin, R. L.
        Seaman, A. Serrano, F. C. Shelly, K. W. Wierzchos.  1.5-m reflector + 10K
        CCD.
    H21 Astronomical Research Observatory, Westfield.  Observer R. Holmes.
        Measurers T. Linder, R. Holmes, L. Horn.  1.3-m f/4.0 astrograph + CCD.
    I52 Steward Observatory, Mt. Lemmon Station.  Observer A. Serrano.  Measurers
        E. J. Christensen, D. Fay, J. B. Fazekas, D. C. Fuls, A. R. Gibbs, A. D.
        Grauer, H. Groeller, J. K. Hogan, R. A. Kowalski, S. M. Larson, G. J.
        Leonard, D. Rankin, R. L. Seaman, A. Serrano, F. C. Shelly, K. W.
        Wierzchos.  1.0-m prime focus + CCD.
    
    Orbital elements:
    2022 KD5                                                 Earth MOID = 0.2895 AU
    Epoch 2022 Jan. 21.0 TT = JDT 2459600.5                 Veres                   
    M 285.09022              (2000.0)            P               Q                  
    n   0.26241646     Peri.  210.62062     +0.92443336     +0.27892546             
    a   2.4162507      Node   130.80285     -0.24126510     +0.95587648             
    e   0.4754251      Incl.   20.09257     -0.29532036     +0.09219943             
    P   3.76           H   19.24          G   0.15           U   8                  
    Residuals in seconds of arc
    220525 G96  0.1-  0.1-    220528 033  0.2+  0.0     220529 I52  0.2-  0.1-
    220525 G96  0.3-  0.2+    220528 033  0.0   0.2-    220529 I52 (0.1+  1.1-)
    220525 G96  1.0+  0.1+    220528 033  0.4+  0.2-    220529 I52  0.1-  0.3-
    220525 G96  0.1+  0.3-    220528 033  0.1-  0.1+    220529 691  0.0   0.1+
    220528 F52  0.0   0.1+    220529 H21  0.0   0.5+    220529 691  0.3+  0.0
    220528 F52  0.0   0.1-    220529 H21  0.1-  0.2+    220529 691  0.2+  0.3-
    220528 F52  0.0   0.1+    220529 H21  0.3-  0.2+
    220528 F52  0.0   0.0     220529 I52  0.1+  0.0
    
    Ephemeris:
    2022 KD5                 a,e,i = 2.42, 0.48, 20                  q = 1.2675
    Date    TT    R. A. (2000) Decl.     Delta      r    Elong.  Phase     V
    2022 04 29    17 08 11.6 +09 39 02   1.3140  2.1301   132.8    20.3    22.5
    ...
    2022 05 14    17 01 19.6 +12 05 28   1.1570  2.0426   140.8    18.2    22.0
    ...
    2022 05 22    16 54 40.0 +13 03 53   1.0889  1.9953   143.5    17.6    21.8
    ...
    2022 05 28    16 48 29.0 +13 33 13   1.0455  1.9596   144.3    17.6    21.7
    2022 05 29    16 47 22.1 +13 36 39   1.0389  1.9537   144.3    17.6    21.7
    2022 05 30    16 46 14.1 +13 39 37   1.0325  1.9477   144.3    17.7    21.7
    ...
    2022 06 05    16 39 04.9 +13 47 21   0.9980  1.9119   143.6    18.3    21.6
    ...
    2022 06 13    16 29 03.9 +13 28 06   0.9620  1.8641   141.0    20.1    21.5
    ...
    2022 06 28    16 11 36.6 +11 15 22   0.9234  1.7746   132.3    25.1    21.5
    
    M. P. C. Staff               (C) Copyright 2022 MPC           M.P.E.C. 2022-K154
    


    Read MPEC 2022-K153 Read MPEC 2022-K155


    MPEC number:

    Enter an MPEC number in one of the following forms:

    • 1997-B01 (the full form)
    • J97B01 (the packed version of the full form)
    • B01 (the abbreviated form)